Nantucket, MA

10:26 PM EST on January 16, 2018 (GMT -0500)
Nantucket Memorial

Weather History for KACK - November, 2010

Change the Weather History Date:

Saturday, November 20, 2010

  Actual Average Record
Temperature  
Mean Temperature 43 °F -  
Max Temperature 54 °F 49 °F 63 °F (1948)
Min Temperature 32 °F 35 °F 20 °F (1973)
Degree Days  
Heating Degree Days 22    
Moisture  
Dew Point 35 °F    
Average Humidity 64    
Maximum Humidity 73    
Minimum Humidity 51    
Precipitation  
Precipitation 0.00 in - - ()
Sea Level Pressure  
Sea Level Pressure 30.09 in    
Wind  
Wind Speed 15 mph (West)    
Max Wind Speed 30 mph    
Max Gust Speed 44 mph    
Visibility 10 miles    
Events      
Averages and records for this station are not official NWS values.
T = Trace of Precipitation, MM = Missing Value Source: NWS Daily Summary

Daily Weather History Graph

Daily Weather History Graph

Search for Another Location

Airport or City:

Trip Planner

Search our weather history database for the weather conditions in past years. The results will help you decide how hot, cold, wet, or windy it might be!

Date:

Astronomy

Nov. 20, 2010 Rise Set
Actual Time 6:34 AM EST 4:17 PM EST
Civil Twilight 6:04 AM EST 4:47 PM EST
Nautical Twilight 5:30 AM EST 5:20 PM EST
Astronomical Twilight 4:57 AM EST 5:53 PM EST
Moon 3:21 PM EST (11/20) 5:30 AM EST (11/20)
Length of Visible Light 10h 43m
Length of Day
9h 43m
Waxing Gibbous, 99% of the Moon is Illuminated
Nov 20
Waxing Gibbous
Nov 21
Full
Nov 28
Last Quarter
Dec 5
New
Dec 13
First Quarter

Hourly Weather History & Observations

Time (EST) Temp. Windchill Dew Point Humidity Pressure Visibility Wind Dir Wind Speed Gust Speed Precip Events Conditions
12:53 AM 32.0 °F 27.5 °F 23.0 °F 69% 30.20 in 10.0 mi WNW 4.6 mph - N/A   Clear
1:53 AM 32.0 °F 28.7 °F 24.1 °F 73% 30.19 in 10.0 mi West 3.5 mph - N/A   Clear
2:53 AM 34.0 °F 31.0 °F 25.0 °F 70% 30.17 in 10.0 mi WSW 3.5 mph - N/A   Clear
3:53 AM 41.0 °F 33.5 °F 32.0 °F 70% 30.14 in 10.0 mi WSW 13.8 mph - N/A   Clear
4:53 AM 44.1 °F 37.4 °F 33.1 °F 65% 30.14 in 10.0 mi West 13.8 mph 20.7 mph N/A   Mostly Cloudy
5:53 AM 46.0 °F 38.0 °F 35.1 °F 66% 30.11 in 10.0 mi SW 21.9 mph 28.8 mph N/A   Scattered Clouds
6:53 AM 46.9 °F - 37.0 °F 68% 30.09 in 10.0 mi SW 20.7 mph 28.8 mph N/A   Partly Cloudy
7:53 AM 48.9 °F - 37.9 °F 66% 30.07 in 10.0 mi SW 27.6 mph 33.4 mph N/A   Clear
8:53 AM 51.1 °F - 41.0 °F 68% 30.05 in 10.0 mi SW 29.9 mph 36.8 mph N/A   Overcast
9:53 AM 52.0 °F - 41.0 °F 66% 30.03 in 10.0 mi WSW 29.9 mph 43.7 mph N/A   Overcast
10:53 AM 53.1 °F - 39.0 °F 59% 30.02 in 10.0 mi West 26.5 mph 40.3 mph N/A   Partly Cloudy
11:53 AM 54.0 °F - 39.0 °F 57% 29.99 in 10.0 mi West 26.5 mph 36.8 mph N/A   Clear
12:53 PM 51.1 °F - 37.9 °F 61% 29.97 in 10.0 mi West 21.9 mph 34.5 mph N/A   Clear
1:53 PM 52.0 °F - 39.9 °F 63% 29.97 in 10.0 mi WSW 27.6 mph 35.7 mph N/A   Clear
2:53 PM 51.1 °F - 39.9 °F 66% 29.99 in 10.0 mi West 24.2 mph 29.9 mph N/A   Clear
3:53 PM 50.0 °F - 39.9 °F 68% 30.02 in 10.0 mi West 23.0 mph 27.6 mph N/A   Clear
4:53 PM 50.0 °F - 37.9 °F 63% 30.04 in 10.0 mi West 21.9 mph 28.8 mph N/A   Clear
5:53 PM 50.0 °F - 39.0 °F 66% 30.06 in 10.0 mi West 16.1 mph 28.8 mph N/A   Clear
6:53 PM 48.9 °F - 39.0 °F 69% 30.09 in 10.0 mi West 15.0 mph - N/A   Clear
7:53 PM 48.9 °F - 34.0 °F 56% 30.13 in 10.0 mi WNW 15.0 mph 23.0 mph N/A   Clear
8:53 PM 48.0 °F - 32.0 °F 54% 30.15 in 10.0 mi WNW 12.7 mph 20.7 mph N/A   Clear
10:53 PM 46.0 °F 39.9 °F 28.9 °F 51% 30.21 in 10.0 mi NW 13.8 mph - N/A   Clear
11:53 PM 45.0 °F 38.2 °F 28.0 °F 52% 30.25 in 10.0 mi NW 15.0 mph 23.0 mph N/A   Clear